sat.trackr.live / text

‹ back to catalog

STARLINK-4730

NORAD 53794 · 2022-111X

PAYLOAD ACTIVE UNKNOWN

§ Identity

Operator
Country
US
Launch date
2022-09-11
Launch site
AFETR
Launch vehicle
Mass (kg)
RCS (m²)

Purposes: comms

External: N2YO · Heavens-Above · Gunter

§ Orbital elements

Epoch: 2026-05-25T02:24:07.655904Z

Period
95.44 min
Inclination
53.2144°
Eccentricity
0.0001186
Mean motion
15.08836026 rev/d
Perigee alt
538.9 km
Apogee alt
540.6 km
Semi-major
6,917.9 km
B*
1.6110e-5
RAAN
290.9474°
Arg perigee
86.0376°
Mean anomaly
274.0751°
Rev number
20,522

§ Raw data

STARLINK-47301 53794U 22111X   26145.10008861 -.00000031  00000+0  16110-4 0  99942 53794  53.2144 290.9474 0001186  86.0376 274.0751 15.08836026205226

JSON: /api/v1/satellites/53794 · /tle

For live sub-satellite position, see the globe view (requires WebGL).

§ Visibility from observer

Set your observer location to see the next 7 days of passes ≥ 10°. The values pass through the URL so the page stays shareable.

No JS? Fill the form by hand. The geolocation button needs JavaScript.